Temperature
13 13 13 13 13 13 13 13 12 12 12 12 12 12 12 11 11 11 11 11 11 11 11 11 10 10 10 10 10 10 10 10 10 10 10 10 10 10 10 10 10 10 10
13 13 13 13 13 13 12 12 12 12 12 12 12 11 11 11 11 11 11 11 11 11 11 10 10 10 10 10 10 10 10 10 10 10 10 10 10 10 10 10 10 10 9
12 12 12 12 12 12 12 12 12 12 12 12 11 11 11 11 11 11 11 10 10 10 10 10 10 10 9 9 9 9 9 9 9 9 9 9 9 9 9 9 9 9 9
12 12 12 12 12 12 12 12 12 12 11 11 11 11 11 11 11 10 10 10 10 10 10 10 10 9 9 9 9 9 9 9 9 9 9 9 9 9 9 9 9 9 9
11 11 11 11 12 12 11 11 11 11 11 11 11 11 11 11 10 10 10 10 10 10 9 9 9 9 9 9 9 9 9 9 9 8 8 8 8 8 8 9 9 9 9
11 11 11 11 11 11 11 11 11 11 11 11 11 11 11 10 10 10 10 10 9 9 9 9 9 9 9 9 8 8 8 8 8 8 8 8 8 8 8 8 8 8 8
11 11 11 11 11 11 11 11 11 11 10 10 10 10 10 10 9 9 9 9 9 9 9 8 8 8 8 8 8 8 8 8 8 8 8 8 8 7 8 8 8 8 8
10 10 10 10 10 10 10 10 10 10 10 10 10 10 9 9 9 9 9 9 9 8 8 8 8 8 8 8 8 8 8 8 7 7 7 7 7 7 7 7 7 7 7
9 9 10 10 10 10 10 10 10 10 10 10 9 9 9 8 8 8 8 8 8 8 8 8 8 8 7 7 7 7 7 7 7 7 7 7 7 7 7 7 7 7 7
9 9 9 9 9 9 9 10 10 10 9 9 9 9 8 8 8 7 8 8 8 8 8 8 7 7 7 7 7 7 7 7 7 7 7 6 7 7 7 7 7 7 7
8 8 8 9 9 9 9 9 9 9 9 9 8 8 8 8 7 7 7 7 7 8 7 7 7 7 7 6 6 7 7 7 7 7 7 6 6 6 6 6 6 6 6
8 8 8 8 8 8 8 8 8 8 8 8 8 8 7 7 7 7 7 7 7 7 7 7 7 6 6 6 6 6 6 6 6 6 6 6 6 6 6 6 6 6 6
7 7 8 8 8 8 8 8 8 8 7 7 7 7 7 7 7 7 6 6 6 6 7 7 6 6 6 6 6 6 6 6 6 6 6 6 6 5 6 6 5 5 6
7 7 7 7 7 7 7 7 7 7 7 7 7 7 7 7 6 6 6 6 5 5 6 6 6 6 5 6 6 5 5 5 5 5 5 5 5 5 5 5 5 5 5
6 6 6 6 7 7 7 7 7 7 6 6 6 6 6 6 6 6 6 6 5 4 5 5 5 5 5 5 5 5 5 5 5 5 5 5 5 5 4 5 5 5 5
6 6 6 6 6 6 6 6 6 6 6 6 6 5 5 5 5 5 5 5 5 5 4 5 5 5 5 5 5 5 5 5 5 5 5 4 4 4 4 4 4 4 4
5 5 6 6 6 5 6 6 6 5 5 5 5 5 5 5 5 5 5 5 5 4 4 5 5 5 5 5 5 5 5 5 5 5 4 4 4 4 4 4 4 4 4
5 5 5 5 5 5 5 5 5 5 5 5 5 5 5 5 5 5 5 5 4 4 4 4 5 4 5 4 4 4 4 4 5 4 4 4 4 4 4 4 4 4 4
4 4 4 5 5 5 4 4 5 4 4 4 4 4 4 4 4 4 4 4 4 4 4 4 4 4 4 4 4 4 4 4 4 4 4 4 4 4 4 3 3 3 3
4 4 4 4 4 4 4 4 4 4 4 4 4 4 4 4 4 4 4 4 4 3 3 3 3 3 3 3 3 3 3 4 4 4 4 4 4 3 3 3 3 3 3
3 3 3 3 3 3 3 3 4 4 3 3 3 3 3 3 3 3 3 3 3 3 3 3 3 2 2 2 2 2 3 3 3 3 3 4 3 3 3 3 3 3 3
3 3 3 3 3 3 3 3 3 3 3 3 3 3 3 3 3 3 3 3 2 2 3 2 2 2 2 2 2 2 2 2 2 3 3 3 3 3 3 3 3 3 3
2 2 2 2 2 2 2 2 2 2 2 2 2 3 3 3 2 2 2 2 2 2 2 2 2 2 2 2 2 2 2 2 2 3 2 3 3 3 3 3 2 3 2
1 1 2 2 2 2 2 2 2 2 2 2 2 2 2 2 2 2 2 2 2 2 2 2 1 1 2 2 2 2 2 2 2 2 2 2 3 3 3 3 2 2 2
1 1 1 1 1 1 1 1 1 1 1 1 1 1 1 1 2 1 1 2 2 2 2 1 1 2 2 2 2 2 2 1 2 2 2 2 2 2 2 2 2 2 2
0 0 0 0 0 0 0 1 1 1 1 1 1 1 1 1 1 1 1 1 1 1 1 2 2 2 2 2 2 1 1 1 1 1 1 1 1 1 1 2 2 2 2
Wind_Speed
2 2 2 3 3 2 1 1 1 1 1 2 1 1 1 3 4 5 5 5 4 3 4 5 6 7 8 8 9 9 9 10 10 11 11 10 10 11 11 10 10 10 10
3 3 3 2 2 2 1 1 2 1 1 1 1 1 1 3 4 5 5 4 3 3 3 5 6 7 8 8 9 9 10 10 10 10 10 10 11 11 11 11 11 11 10
4 4 2 2 2 2 2 2 3 2 1 1 1 1 2 2 3 4 4 3 3 3 3 4 6 7 8 9 9 9 10 10 10 10 10 11 11 11 11 11 11 11 11
5 4 3 2 3 3 3 1 1 1 1 1 1 1 1 2 2 3 3 3 3 3 2 3 5 6 7 8 9 10 10 9 10 10 11 11 12 12 11 11 11 11 11
5 5 3 3 4 3 2 1 1 1 1 1 1 0 1 1 1 2 2 3 3 3 3 3 3 5 6 7 8 9 10 9 10 10 11 12 12 12 12 12 11 11 11
6 5 3 4 4 2 1 1 1 1 1 1 0 1 0 1 1 2 1 2 2 2 3 2 2 3 5 6 7 9 10 10 10 11 12 12 12 12 12 12 11 11 11
5 5 3 3 2 1 1 1 1 1 1 1 1 1 1 0 1 1 1 1 0 1 2 2 2 3 4 6 7 9 10 11 11 11 12 11 12 13 12 12 11 11 11
5 4 3 2 2 1 2 2 2 1 1 1 1 1 0 1 1 0 0 0 1 1 2 2 2 3 3 4 6 9 11 12 11 11 11 11 12 13 12 12 11 11 11
4 4 3 3 2 2 1 1 2 1 0 0 2 2 1 1 1 1 1 0 0 1 2 2 3 3 3 3 5 8 10 12 12 11 11 11 12 12 12 12 12 12 12
4 4 4 3 3 2 2 1 1 1 1 1 0 1 1 1 1 1 2 1 1 1 1 2 3 3 2 3 5 8 10 11 12 11 11 11 12 12 13 13 12 13 13
3 3 3 3 2 2 2 2 1 1 1 1 0 0 0 1 0 1 2 2 2 2 1 2 2 2 3 3 4 7 10 11 11 11 11 12 12 12 12 12 12 13 13
2 3 3 2 2 2 2 2 1 1 1 1 1 1 1 0 1 0 2 3 3 3 2 1 1 1 3 4 6 9 10 10 11 11 12 12 12 12 12 12 12 12 13
1 1 2 1 1 1 2 2 1 1 1 1 0 0 0 1 1 1 1 2 3 3 2 1 1 1 3 4 6 9 9 10 11 11 11 11 12 12 11 12 12 12 12
0 1 1 1 1 1 2 2 1 1 1 1 1 1 1 1 1 0 0 1 3 3 2 2 1 0 3 5 7 9 8 10 11 11 11 11 11 11 11 11 11 11 11
1 1 1 1 1 1 1 1 1 1 0 0 1 1 1 1 0 1 1 1 1 3 4 2 1 1 3 5 7 7 7 9 10 10 11 11 10 10 10 10 10 10 11
1 1 1 0 0 1 1 0 1 1 1 1 1 1 1 1 1 1 1 2 2 2 4 3 2 3 4 5 7 7 7 9 9 10 10 10 10 9 10 10 10 10 10
1 0 1 0 0 0 0 0 1 1 1 1 1 1 2 2 1 1 1 2 2 2 4 5 3 3 3 4 5 6 7 6 7 10 10 10 10 9 9 9 9 9 9
1 1 1 0 0 0 1 1 1 1 1 1 1 1 2 2 2 2 2 2 3 3 3 6 5 4 4 4 4 4 5 6 6 9 10 10 10 9 9 9 9 8 9
2 1 1 1 1 1 1 1 1 1 1 1 1 1 1 2 2 2 3 3 3 3 3 4 5 4 4 4 4 5 5 4 6 7 8 9 9 9 9 9 8 8 8
1 1 1 1 1 1 1 1 1 1 2 1 1 1 1 1 2 3 3 3 3 3 3 3 4 4 4 3 3 4 5 4 5 5 6 8 9 9 9 8 8 8 8
2 2 1 1 1 1 1 1 1 2 2 2 1 1 1 2 3 3 3 3 3 3 3 3 4 4 4 4 4 4 5 5 5 3 3 4 5 4 5 7 7 7 8
2 1 1 2 1 1 1 2 1 1 2 2 2 2 2 2 3 4 5 5 4 3 3 3 4 5 5 5 4 4 4 4 4 2 4 5 4 4 4 4 7 8 8
2 1 2 2 2 2 2 3 3 1 2 2 2 2 2 2 3 2 4 5 5 5 5 4 5 6 6 5 5 5 5 5 5 4 4 5 3 4 4 6 9 9 9
2 1 2 2 2 2 3 3 3 2 1 2 2 2 2 2 3 3 3 4 4 4 4 4 4 6 6 5 5 5 5 5 5 3 2 3 3 4 5 5 8 8 8
2 2 1 2 2 2 3 3 2 1 1 2 2 2 2 2 4 5 4 4 5 4 5 7 8 8 9 8 6 2 2 3 4 4 1 1 2 4 4 3 5 7 8
2 2 2 2 2 2 3 3 2 1 1 2 2 2 3 3 4 4 3 3 5 5 5 6 6 6 5 5 5 2 2 3 3 3 1 1 2 2 3 2 3 4 6
Wind_Direction
65 58 60 77 84 70 42 4 39 97 108 95 102 89 64 80 92 99 110 108 89 55 30 19 13 8 7 7 6 3 0 358 356 354 353 350 351 346 339 334 329 321 315
54 57 68 57 65 66 32 16 32 45 67 68 74 70 71 72 82 89 106 117 111 70 28 16 9 8 8 5 4 2 356 353 350 349 347 345 345 341 338 335 331 325 321
57 56 67 70 47 48 54 45 39 36 59 56 56 68 65 70 80 84 87 96 107 89 49 23 13 8 3 359 357 356 353 350 349 347 343 341 340 339 338 335 332 328 324
56 56 53 65 44 40 39 67 100 62 57 53 31 27 75 77 80 85 91 77 79 81 68 23 10 4 359 355 354 354 353 352 349 348 344 341 339 336 335 334 332 329 326
58 57 53 48 50 51 42 31 82 94 86 55 25 1 52 93 112 98 94 80 68 63 61 32 7 360 355 351 350 351 351 351 349 346 344 341 339 335 333 331 329 327 326
50 50 54 47 49 76 70 40 27 74 105 102 22 347 267 177 120 103 95 84 75 50 35 17 358 338 340 342 345 345 347 346 344 341 339 338 338 337 333 331 329 327 325
49 47 46 47 40 94 108 102 44 81 94 94 71 15 321 204 112 105 93 67 60 45 16 0 357 354 343 338 340 342 342 342 338 337 336 337 336 334 334 332 329 328 326
53 48 44 42 22 56 84 86 91 59 72 82 97 101 2 338 334 325 105 104 360 15 360 354 357 354 343 340 337 340 338 337 334 335 336 336 334 334 334 332 332 327 325
53 47 38 35 20 32 76 84 94 98 149 77 85 104 116 231 304 276 252 240 347 2 339 338 335 332 343 349 343 338 337 334 331 331 330 331 333 333 333 333 329 328 326
54 48 44 41 31 18 15 48 76 68 124 171 357 35 113 141 149 294 285 270 282 304 319 327 323 321 351 348 339 336 335 334 332 332 330 330 330 331 332 331 330 329 328
52 49 46 42 33 13 3 360 41 59 90 142 135 37 353 340 149 204 279 293 299 270 266 290 303 333 347 350 342 334 335 334 334 334 334 332 330 329 328 328 328 328 328
39 38 45 43 31 22 14 359 6 39 67 88 73 89 142 173 263 266 267 286 291 282 276 268 295 322 335 352 340 336 334 334 334 335 336 335 331 327 325 325 325 325 325
18 359 29 28 35 28 20 4 9 8 18 42 47 245 218 262 283 302 295 296 299 294 277 264 268 302 338 342 333 329 328 330 330 331 333 336 334 331 329 326 326 327 329
318 0 21 8 10 25 11 0 342 327 10 5 354 350 322 283 307 310 274 314 312 301 289 280 292 345 348 334 329 327 324 326 326 328 331 332 331 332 335 333 333 335 335
351 6 2 26 14 14 356 345 297 225 213 260 306 319 315 310 287 284 286 236 246 288 283 277 306 318 335 323 322 323 321 318 321 323 327 329 328 331 333 334 336 338 339
341 347 333 35 37 6 360 32 316 264 212 226 270 290 313 325 337 300 261 267 256 256 276 280 291 309 318 317 317 319 313 317 319 319 321 326 328 330 332 333 334 337 337
323 296 259 151 141 84 359 178 308 321 318 316 316 322 327 333 323 317 286 267 271 267 276 292 293 306 302 309 320 317 315 314 314 321 324 326 327 329 331 332 334 337 338
318 307 294 189 222 222 260 227 249 304 274 284 299 314 311 322 318 305 298 286 278 276 273 288 303 307 305 297 306 312 321 322 320 317 323 324 327 329 329 330 333 338 340
311 317 309 226 228 228 233 245 223 283 274 269 287 272 294 319 310 305 302 298 300 298 292 290 297 306 309 311 317 312 315 315 318 321 321 323 324 327 326 325 328 333 336
298 292 292 258 227 225 212 246 238 283 282 277 286 286 289 296 299 306 303 310 315 311 307 300 302 311 310 312 316 314 314 314 316 325 325 323 320 321 319 320 323 328 331
309 290 297 282 246 223 232 236 245 278 274 266 280 285 289 298 306 304 308 307 308 305 309 303 298 308 311 324 312 305 303 308 306 309 321 319 313 309 310 311 316 319 322
308 304 292 282 258 262 276 282 291 277 276 266 272 286 291 282 306 316 315 319 318 302 296 295 292 292 292 301 303 301 302 313 303 302 314 303 308 304 307 298 309 317 319
303 291 288 293 278 258 265 282 294 289 273 262 258 266 294 306 317 307 318 325 321 317 308 291 284 284 284 287 291 290 294 298 285 287 299 289 293 295 302 303 310 313 317
301 290 290 290 288 268 268 283 298 298 283 277 255 246 269 289 295 315 321 315 311 307 308 308 282 283 289 279 268 269 275 287 297 290 278 274 289 291 304 294 306 316 323
308 302 294 283 280 272 275 283 302 288 283 295 294 268 264 274 294 318 320 310 309 311 317 314 310 307 305 302 306 296 300 309 309 302 284 259 284 307 293 281 294 311 319
311 311 303 288 279 275 279 283 301 289 290 300 301 292 280 290 298 307 302 298 299 305 318 320 319 318 313 307 313 294 269 286 304 288 288 297 289 326 305 281 293 301 311
Height
1518 1520 1520 1521 1522 1524 1525 1526 1527 1528 1529 1530 1531 1532 1532 1532 1532 1532 1532 1532 1531 1531 1530 1529 1528 1527 1526 1524 1523 1521 1519 1518 1516 1515 1513 1512 1510 1509 1507 1506 1505 1504 1503
1517 1518 1519 1520 1521 1522 1524 1525 1526 1527 1528 1529 1530 1530 1531 1531 1531 1531 1531 1530 1530 1529 1529 1528 1527 1525 1524 1522 1521 1519 1517 1516 1514 1513 1511 1509 1508 1506 1505 1503 1502 1501 1500
1516 1517 1517 1519 1520 1521 1522 1524 1525 1526 1527 1528 1528 1529 1529 1530 1530 1530 1530 1529 1529 1528 1527 1526 1525 1524 1522 1521 1519 1517 1516 1514 1512 1510 1508 1507 1505 1504 1502 1501 1499 1498 1497
1514 1515 1516 1517 1518 1519 1521 1522 1523 1524 1525 1526 1527 1527 1528 1528 1528 1528 1528 1528 1527 1526 1525 1524 1523 1522 1520 1519 1517 1516 1514 1512 1510 1508 1506 1504 1503 1501 1500 1498 1497 1495 1494
1513 1513 1515 1516 1517 1518 1519 1521 1522 1522 1523 1524 1525 1526 1526 1526 1527 1527 1527 1526 1526 1525 1524 1523 1521 1520 1518 1517 1515 1514 1512 1510 1508 1506 1504 1502 1500 1499 1497 1495 1494 1492 1491
1511 1512 1513 1514 1516 1517 1518 1519 1520 1520 1522 1523 1523 1524 1524 1525 1525 1525 1525 1524 1524 1523 1522 1521 1519 1518 1517 1515 1513 1511 1509 1507 1505 1503 1501 1500 1498 1496 1494 1493 1491 1490 1488
1509 1510 1511 1512 1513 1515 1516 1517 1518 1519 1520 1521 1521 1521 1522 1523 1523 1523 1523 1522 1522 1521 1520 1519 1518 1516 1515 1513 1511 1509 1507 1505 1503 1501 1499 1497 1495 1493 1492 1490 1488 1487 1485
1508 1509 1509 1510 1512 1513 1514 1515 1516 1517 1517 1518 1519 1519 1520 1521 1521 1521 1520 1520 1519 1519 1518 1517 1516 1514 1512 1511 1509 1507 1505 1503 1501 1499 1497 1495 1493 1491 1489 1487 1485 1484 1482
1508 1508 1508 1509 1510 1511 1512 1513 1514 1515 1515 1516 1517 1518 1518 1518 1518 1518 1518 1518 1517 1516 1516 1515 1513 1512 1510 1508 1507 1505 1502 1500 1498 1496 1494 1492 1490 1488 1486 1484 1482 1480 1479
1506 1507 1507 1508 1509 1509 1510 1511 1511 1512 1513 1513 1514 1515 1517 1516 1516 1515 1515 1515 1514 1514 1513 1512 1511 1510 1508 1506 1504 1502 1500 1498 1496 1494 1492 1489 1487 1485 1483 1481 1479 1477 1475
1505 1506 1506 1506 1507 1508 1508 1509 1509 1510 1510 1511 1512 1512 1513 1514 1514 1513 1512 1511 1511 1511 1510 1509 1508 1507 1506 1504 1502 1500 1498 1496 1493 1491 1489 1487 1485 1482 1480 1478 1476 1474 1472
1503 1504 1505 1505 1505 1506 1506 1507 1507 1508 1508 1509 1510 1510 1510 1511 1511 1511 1510 1508 1507 1507 1507 1506 1506 1505 1503 1501 1500 1498 1495 1493 1490 1488 1486 1484 1481 1479 1477 1475 1472 1471 1469
1501 1502 1502 1503 1503 1504 1504 1504 1505 1506 1506 1506 1507 1508 1508 1508 1509 1508 1508 1506 1505 1504 1504 1503 1502 1502 1500 1498 1497 1495 1492 1490 1488 1485 1483 1481 1478 1476 1473 1471 1469 1467 1465
1499 1500 1500 1501 1501 1501 1502 1502 1503 1503 1503 1504 1505 1506 1506 1506 1506 1506 1505 1504 1502 1501 1500 1500 1499 1498 1497 1495 1493 1491 1489 1487 1485 1482 1480 1477 1475 1473 1470 1468 1466 1464 1462
1498 1498 1498 1499 1499 1499 1500 1500 1500 1501 1501 1502 1503 1503 1503 1503 1503 1503 1503 1503 1503 1499 1497 1496 1496 1495 1493 1492 1490 1488 1486 1484 1481 1479 1477 1474 1472 1470 1468 1465 1463 1461 1459
1496 1496 1497 1496 1497 1498 1498 1498 1498 1498 1498 1499 1500 1501 1501 1500 1500 1500 1500 1500 1500 1498 1495 1493 1493 1492 1490 1488 1487 1485 1483 1481 1478 1476 1474 1471 1469 1467 1465 1463 1460 1458 1457
1494 1494 1494 1495 1495 1495 1495 1496 1496 1496 1496 1496 1496 1497 1497 1498 1497 1497 1497 1497 1496 1495 1492 1490 1490 1488 1487 1485 1483 1482 1479 1477 1475 1473 1471 1468 1466 1464 1462 1460 1458 1456 1454
1491 1492 1492 1492 1492 1493 1493 1493 1493 1493 1494 1493 1493 1494 1494 1494 1494 1494 1494 1493 1493 1492 1490 1487 1486 1485 1483 1482 1480 1478 1476 1474 1472 1470 1467 1465 1464 1462 1459 1457 1455 1453 1451
1489 1489 1489 1489 1490 1490 1490 1490 1490 1491 1491 1490 1490 1490 1491 1491 1491 1491 1490 1490 1489 1489 1487 1485 1482 1481 1480 1478 1476 1474 1472 1470 1468 1466 1464 1463 1461 1459 1457 1454 1453 1451 1449
1486 1486 1486 1487 1487 1487 1488 1488 1488 1488 1488 1488 1488 1487 1487 1488 1488 1487 1487 1486 1486 1485 1483 1481 1479 1478 1476 1475 1473 1470 1468 1467 1465 1463 1461 1460 1458 1456 1454 1452 1450 1448 1446
1484 1484 1484 1484 1484 1485 1485 1485 1485 1485 1485 1484 1484 1484 1484 1485 1485 1485 1484 1483 1482 1481 1480 1478 1476 1475 1473 1471 1469 1467 1465 1463 1461 1460 1458 1456 1454 1452 1450 1448 1447 1445 1444
1481 1481 1481 1481 1481 1481 1482 1482 1481 1481 1481 1481 1481 1481 1482 1482 1482 1482 1481 1480 1480 1478 1476 1475 1473 1472 1470 1468 1466 1465 1463 1460 1457 1457 1455 1452 1451 1449 1447 1445 1444 1443 1441
1478 1478 1478 1478 1478 1478 1479 1479 1478 1478 1478 1478 1478 1478 1478 1478 1478 1478 1477 1477 1476 1475 1474 1472 1470 1469 1467 1465 1464 1462 1460 1458 1456 1454 1451 1448 1447 1445 1444 1443 1441 1440 1438
1476 1475 1475 1475 1475 1475 1475 1475 1475 1475 1475 1475 1475 1475 1474 1474 1475 1475 1474 1472 1471 1471 1470 1468 1467 1466 1464 1462 1461 1459 1457 1455 1453 1451 1450 1447 1444 1442 1441 1440 1438 1437 1435
1473 1473 1472 1472 1472 1471 1472 1472 1472 1472 1471 1471 1471 1471 1471 1471 1471 1471 1470 1469 1468 1467 1466 1465 1464 1462 1460 1459 1457 1456 1454 1452 1449 1448 1447 1445 1442 1439 1437 1436 1435 1434 1432
1471 1470 1470 1469 1469 1469 1469 1469 1469 1469 1468 1468 1468 1468 1468 1468 1468 1467 1467 1465 1464 1463 1462 1461 1460 1459 1457 1455 1454 1453 1451 1449 1447 1445 1444 1442 1440 1438 1435 1433 1432 1431 1429